contact:dominique.lefevre@mio.osupytheas.fr, maurice.libes@osupytheas.fr, didier.mallarino@osupytheas.fr
Project:EMSO http://www.emso-fr.org/EMSO-France
Depth: 2436.0 m
Title:EMSO Ligure Ouest : Data MII capteur MICROCAT
DateTime_Computer,Latitude,Longitude,Temperature,Conductivity,Pressure,DateTime_Instrument
DateTime_Computer,Latitude,Longitude,degC,S m-1,dbar,DateTime_Instrument
2022-12-05T00:01:44Z,42.805,6.029,13.3022,4.60081,2470.544,2022-12-05T02:03:44Z
2022-12-05T00:04:47Z,42.805,6.029,13.3018,4.60075,2470.53,2022-12-05T02:06:47Z
2022-12-05T00:07:50Z,42.805,6.029,13.3024,4.60077,2470.53,2022-12-05T02:09:50Z
2022-12-05T00:10:53Z,42.805,6.029,13.3026,4.60074,2470.567,2022-12-05T02:12:53Z
2022-12-05T00:13:57Z,42.805,6.029,13.3019,4.60084,2470.53,2022-12-05T02:15:56Z
2022-12-05T00:17:00Z,42.805,6.029,13.3027,4.60084,2470.53,2022-12-05T02:19:00Z
2022-12-05T00:20:03Z,42.805,6.029,13.3025,4.60094,2470.567,2022-12-05T02:22:03Z
2022-12-05T00:23:06Z,42.805,6.029,13.3025,4.60083,2470.567,2022-12-05T02:25:06Z
2022-12-05T00:26:09Z,42.805,6.029,13.3026,4.60092,2470.567,2022-12-05T02:28:09Z
2022-12-05T00:29:12Z,42.805,6.029,13.3029,4.60092,2470.553,2022-12-05T02:31:12Z
2022-12-05T00:32:15Z,42.805,6.029,13.3019,4.60076,2470.507,2022-12-05T02:34:15Z
2022-12-05T00:35:18Z,42.805,6.029,13.3026,4.60084,2470.53,2022-12-05T02:37:18Z
2022-12-05T00:38:21Z,42.805,6.029,13.3026,4.60087,2470.567,2022-12-05T02:40:21Z
2022-12-05T00:41:24Z,42.805,6.029,13.3021,4.60085,2470.567,2022-12-05T02:43:24Z
2022-12-05T00:44:27Z,42.805,6.029,13.3018,4.60079,2470.553,2022-12-05T02:46:27Z
2022-12-05T00:47:30Z,42.805,6.029,13.3023,4.60082,2470.53,2022-12-05T02:49:30Z
2022-12-05T00:50:33Z,42.805,6.029,13.3019,4.60079,2470.553,2022-12-05T02:52:33Z
2022-12-05T00:53:36Z,42.805,6.029,13.3019,4.60081,2470.553,2022-12-05T02:55:36Z
2022-12-05T00:56:40Z,42.805,6.029,13.3022,4.60083,2470.53,2022-12-05T02:58:39Z
2022-12-05T00:59:43Z,42.805,6.029,13.3022,4.60084,2470.567,2022-12-05T03:01:43Z
2022-12-05T01:02:46Z,42.805,6.029,13.3019,4.60086,2470.553,2022-12-05T03:04:46Z
2022-12-05T01:05:49Z,42.805,6.029,13.3024,4.60085,2470.553,2022-12-05T03:07:49Z
2022-12-05T01:08:52Z,42.805,6.029,13.3024,4.60084,2470.577,2022-12-05T03:10:52Z
2022-12-05T01:11:55Z,42.805,6.029,13.3021,4.60112,2470.567,2022-12-05T03:13:55Z
2022-12-05T01:14:58Z,42.805,6.029,13.3022,4.60096,2470.53,2022-12-05T03:16:58Z
2022-12-05T01:18:01Z,42.805,6.029,13.3024,4.60109,2470.567,2022-12-05T03:20:01Z
2022-12-05T01:21:04Z,42.805,6.029,13.3028,4.60099,2470.577,2022-12-05T03:23:04Z
2022-12-05T01:24:07Z,42.805,6.029,13.3029,4.60086,2470.577,2022-12-05T03:26:07Z
2022-12-05T01:27:10Z,42.805,6.029,13.3021,4.60112,2470.577,2022-12-05T03:29:10Z
2022-12-05T01:30:13Z,42.805,6.029,13.3019,4.60077,2470.577,2022-12-05T03:32:13Z
2022-12-05T01:33:16Z,42.805,6.029,13.3020,4.60077,2470.553,2022-12-05T03:35:16Z
2022-12-05T01:36:19Z,42.805,6.029,13.3026,4.60092,2470.591,2022-12-05T03:38:19Z
2022-12-05T01:39:22Z,42.805,6.029,13.3032,4.60083,2470.591,2022-12-05T03:41:22Z
2022-12-05T01:42:26Z,42.805,6.029,13.3028,4.60092,2470.567,2022-12-05T03:44:25Z
2022-12-05T01:45:29Z,42.805,6.029,13.3026,4.60104,2470.563,2022-12-05T03:47:29Z
2022-12-05T01:48:32Z,42.805,6.029,13.3029,4.60102,2470.6,2022-12-05T03:50:32Z
2022-12-05T01:51:35Z,42.805,6.029,13.3025,4.60095,2470.591,2022-12-05T03:53:35Z
2022-12-05T01:54:38Z,42.805,6.029,13.3021,4.60087,2470.553,2022-12-05T03:56:38Z
2022-12-05T01:57:41Z,42.805,6.029,13.3022,4.60090,2470.614,2022-12-05T03:59:41Z
2022-12-05T02:00:44Z,42.805,6.029,13.3019,4.60077,2470.577,2022-12-05T04:02:44Z
2022-12-05T02:03:47Z,42.805,6.029,13.3021,4.60074,2470.6,2022-12-05T04:05:47Z
2022-12-05T02:06:50Z,42.805,6.029,13.3021,4.60079,2470.577,2022-12-05T04:08:50Z
2022-12-05T02:09:53Z,42.805,6.029,13.3026,4.60092,2470.624,2022-12-05T04:11:53Z
2022-12-05T02:12:56Z,42.805,6.029,13.3025,4.60083,2470.624,2022-12-05T04:14:56Z
2022-12-05T02:15:59Z,42.805,6.029,13.3031,4.60087,2470.624,2022-12-05T04:17:59Z
2022-12-05T02:19:02Z,42.805,6.029,13.3028,4.60086,2470.614,2022-12-05T04:21:02Z
2022-12-05T02:22:06Z,42.805,6.029,13.3021,4.60102,2470.563,2022-12-05T04:24:05Z
2022-12-05T02:25:09Z,42.805,6.029,13.3026,4.60087,2470.637,2022-12-05T04:27:09Z
2022-12-05T02:28:12Z,42.805,6.029,13.3025,4.60077,2470.624,2022-12-05T04:30:12Z
2022-12-05T02:31:15Z,42.805,6.029,13.3021,4.60081,2470.6,2022-12-05T04:33:15Z
2022-12-05T02:34:18Z,42.805,6.029,13.3021,4.60077,2470.624,2022-12-05T04:36:18Z
2022-12-05T02:37:21Z,42.805,6.029,13.3023,4.60077,2470.637,2022-12-05T04:39:21Z
2022-12-05T02:40:24Z,42.805,6.029,13.3024,4.60083,2470.577,2022-12-05T04:42:24Z
2022-12-05T02:43:27Z,42.805,6.029,13.3024,4.60092,2470.6,2022-12-05T04:45:27Z
2022-12-05T02:46:30Z,42.805,6.029,13.3028,4.60094,2470.624,2022-12-05T04:48:30Z
2022-12-05T02:49:33Z,42.805,6.029,13.3021,4.60091,2470.6,2022-12-05T04:51:33Z
2022-12-05T02:52:36Z,42.805,6.029,13.3027,4.60099,2470.646,2022-12-05T04:54:36Z
2022-12-05T02:55:39Z,42.805,6.029,13.3026,4.60081,2470.661,2022-12-05T04:57:39Z
2022-12-05T02:58:42Z,42.805,6.029,13.3029,4.60092,2470.624,2022-12-05T05:00:42Z
2022-12-05T03:01:45Z,42.805,6.029,13.3025,4.60084,2470.614,2022-12-05T05:03:45Z
2022-12-05T03:04:48Z,42.805,6.029,13.3025,4.60077,2470.646,2022-12-05T05:06:48Z
2022-12-05T03:07:52Z,42.805,6.029,13.3026,4.60082,2470.61,2022-12-05T05:09:51Z
2022-12-05T03:10:55Z,42.805,6.029,13.3026,4.60094,2470.661,2022-12-05T05:12:55Z
2022-12-05T03:13:58Z,42.805,6.029,13.3024,4.60086,2470.637,2022-12-05T05:15:58Z
2022-12-05T03:17:01Z,42.805,6.029,13.3023,4.60081,2470.646,2022-12-05T05:19:01Z
2022-12-05T03:20:04Z,42.805,6.029,13.3021,4.60074,2470.646,2022-12-05T05:22:04Z
2022-12-05T03:23:07Z,42.805,6.029,13.3024,4.60081,2470.67,2022-12-05T05:25:07Z
2022-12-05T03:26:10Z,42.805,6.029,13.3019,4.60078,2470.67,2022-12-05T05:28:10Z
2022-12-05T03:29:13Z,42.805,6.029,13.3031,4.60106,2470.624,2022-12-05T05:31:13Z
2022-12-05T03:32:16Z,42.805,6.029,13.3019,4.60092,2470.693,2022-12-05T05:34:16Z
2022-12-05T03:35:19Z,42.805,6.029,13.3022,4.60082,2470.67,2022-12-05T05:37:19Z
2022-12-05T03:38:22Z,42.805,6.029,13.3019,4.60091,2470.684,2022-12-05T05:40:22Z
2022-12-05T03:41:25Z,42.805,6.029,13.3021,4.60084,2470.67,2022-12-05T05:43:25Z
2022-12-05T03:44:28Z,42.805,6.029,13.3022,4.60080,2470.693,2022-12-05T05:46:28Z
2022-12-05T03:47:31Z,42.805,6.029,13.3026,4.60087,2470.67,2022-12-05T05:49:31Z
2022-12-05T03:50:34Z,42.805,6.029,13.3017,4.60091,2470.67,2022-12-05T05:52:34Z
2022-12-05T03:53:38Z,42.805,6.029,13.3029,4.60092,2470.67,2022-12-05T05:55:38Z
2022-12-05T03:56:41Z,42.805,6.029,13.3015,4.60091,2470.73,2022-12-05T05:58:41Z
2022-12-05T03:59:44Z,42.805,6.029,13.3026,4.60081,2470.684,2022-12-05T06:01:44Z
2022-12-05T04:02:47Z,42.805,6.029,13.3022,4.60089,2470.693,2022-12-05T06:04:47Z
2022-12-05T04:05:50Z,42.805,6.029,13.3021,4.60096,2470.646,2022-12-05T06:07:50Z
2022-12-05T04:08:53Z,42.805,6.029,13.3023,4.60083,2470.693,2022-12-05T06:10:53Z
2022-12-05T04:11:56Z,42.805,6.029,13.3021,4.60087,2470.67,2022-12-05T06:13:56Z
2022-12-05T04:14:59Z,42.805,6.029,13.3027,4.60088,2470.693,2022-12-05T06:16:59Z
2022-12-05T04:18:02Z,42.805,6.029,13.3025,4.60104,2470.693,2022-12-05T06:20:02Z
2022-12-05T04:21:05Z,42.805,6.029,13.3029,4.60093,2470.707,2022-12-05T06:23:05Z
2022-12-05T04:24:08Z,42.805,6.029,13.3028,4.60097,2470.67,2022-12-05T06:26:08Z
2022-12-05T04:27:11Z,42.805,6.029,13.3024,4.60090,2470.693,2022-12-05T06:29:11Z
2022-12-05T04:30:14Z,42.805,6.029,13.3028,4.60087,2470.717,2022-12-05T06:32:14Z
2022-12-05T04:33:17Z,42.805,6.029,13.3024,4.60083,2470.693,2022-12-05T06:35:17Z
2022-12-05T04:36:21Z,42.805,6.029,13.3027,4.60082,2470.707,2022-12-05T06:38:20Z
2022-12-05T04:39:24Z,42.805,6.029,13.3026,4.60084,2470.693,2022-12-05T06:41:24Z
2022-12-05T04:42:27Z,42.805,6.029,13.3028,4.60081,2470.67,2022-12-05T06:44:27Z
2022-12-05T04:45:30Z,42.805,6.029,13.3031,4.60092,2470.684,2022-12-05T06:47:30Z
2022-12-05T04:48:33Z,42.805,6.029,13.3023,4.60091,2470.707,2022-12-05T06:50:33Z
2022-12-05T04:51:36Z,42.805,6.029,13.3029,4.60092,2470.693,2022-12-05T06:53:36Z
2022-12-05T04:54:39Z,42.805,6.029,13.3024,4.60092,2470.684,2022-12-05T06:56:39Z
2022-12-05T04:57:42Z,42.805,6.029,13.3026,4.60082,2470.684,2022-12-05T06:59:42Z
2022-12-05T05:00:45Z,42.805,6.029,13.3025,4.60089,2470.693,2022-12-05T07:02:45Z
2022-12-05T05:03:48Z,42.805,6.029,13.3025,4.60103,2470.646,2022-12-05T07:05:48Z
2022-12-05T05:06:51Z,42.805,6.029,13.3023,4.60092,2470.73,2022-12-05T07:08:51Z
2022-12-05T05:09:54Z,42.805,6.029,13.3020,4.60081,2470.693,2022-12-05T07:11:54Z
2022-12-05T05:12:57Z,42.805,6.029,13.3026,4.60079,2470.717,2022-12-05T07:14:57Z
2022-12-05T05:16:00Z,42.805,6.029,13.3026,4.60096,2470.707,2022-12-05T07:18:00Z
2022-12-05T05:19:03Z,42.805,6.029,13.3024,4.60090,2470.717,2022-12-05T07:21:03Z
2022-12-05T05:22:07Z,42.805,6.029,13.3027,4.60093,2470.717,2022-12-05T07:24:07Z
2022-12-05T05:25:10Z,42.805,6.029,13.3027,4.60077,2470.679,2022-12-05T07:27:10Z
2022-12-05T05:28:13Z,42.805,6.029,13.3026,4.60106,2470.693,2022-12-05T07:30:13Z
2022-12-05T05:31:16Z,42.805,6.029,13.3023,4.60086,2470.693,2022-12-05T07:33:16Z
2022-12-05T05:34:19Z,42.805,6.029,13.3021,4.60078,2470.67,2022-12-05T07:36:19Z
2022-12-05T05:37:22Z,42.805,6.029,13.3020,4.60081,2470.693,2022-12-05T07:39:22Z
2022-12-05T05:40:25Z,42.805,6.029,13.3030,4.60085,2470.693,2022-12-05T07:42:25Z
2022-12-05T05:43:28Z,42.805,6.029,13.3022,4.60079,2470.717,2022-12-05T07:45:28Z
2022-12-05T05:46:31Z,42.805,6.029,13.3027,4.60082,2470.707,2022-12-05T07:48:31Z
2022-12-05T05:49:34Z,42.805,6.029,13.3024,4.60089,2470.717,2022-12-05T07:51:34Z
2022-12-05T05:52:37Z,42.805,6.029,13.3019,4.60081,2470.684,2022-12-05T07:54:37Z
2022-12-05T05:55:40Z,42.805,6.029,13.3025,4.60081,2470.693,2022-12-05T07:57:40Z
2022-12-05T05:58:43Z,42.805,6.029,13.3023,4.60080,2470.693,2022-12-05T08:00:43Z
2022-12-05T06:01:47Z,42.805,6.029,13.3024,4.60084,2470.73,2022-12-05T08:03:46Z
2022-12-05T06:04:50Z,42.805,6.029,13.3019,4.60085,2470.693,2022-12-05T08:06:50Z
2022-12-05T06:07:53Z,42.805,6.029,13.3022,4.60092,2470.693,2022-12-05T08:09:53Z
2022-12-05T06:10:56Z,42.805,6.029,13.3029,4.60085,2470.679,2022-12-05T08:12:56Z
2022-12-05T06:13:59Z,42.805,6.029,13.3026,4.60082,2470.74,2022-12-05T08:15:59Z
2022-12-05T06:17:02Z,42.805,6.029,13.3030,4.60082,2470.693,2022-12-05T08:19:02Z
2022-12-05T06:20:05Z,42.805,6.029,13.3021,4.60077,2470.693,2022-12-05T08:22:05Z
2022-12-05T06:23:08Z,42.805,6.029,13.3022,4.60079,2470.693,2022-12-05T08:25:08Z
2022-12-05T06:26:11Z,42.805,6.029,13.3019,4.60074,2470.717,2022-12-05T08:28:11Z
2022-12-05T06:29:14Z,42.805,6.029,13.3023,4.60089,2470.693,2022-12-05T08:31:14Z
2022-12-05T06:32:17Z,42.805,6.029,13.3018,4.60079,2470.717,2022-12-05T08:34:17Z
2022-12-05T06:35:20Z,42.805,6.029,13.3026,4.60077,2470.684,2022-12-05T08:37:20Z
2022-12-05T06:38:23Z,42.805,6.029,13.3024,4.60084,2470.73,2022-12-05T08:40:23Z
2022-12-05T06:41:26Z,42.805,6.029,13.3019,4.60092,2470.73,2022-12-05T08:43:26Z
2022-12-05T06:44:29Z,42.805,6.029,13.3017,4.60077,2470.73,2022-12-05T08:46:29Z
2022-12-05T06:47:33Z,42.805,6.029,13.3029,4.60080,2470.693,2022-12-05T08:49:32Z
2022-12-05T06:50:36Z,42.805,6.029,13.3022,4.60082,2470.717,2022-12-05T08:52:36Z
2022-12-05T06:53:39Z,42.805,6.029,13.3021,4.60085,2470.684,2022-12-05T08:55:39Z
2022-12-05T06:56:42Z,42.805,6.029,13.3024,4.60080,2470.67,2022-12-05T08:58:42Z
2022-12-05T06:59:45Z,42.805,6.029,13.3017,4.60079,2470.693,2022-12-05T09:01:45Z
2022-12-05T07:02:48Z,42.805,6.029,13.3015,4.60080,2470.693,2022-12-05T09:04:48Z
2022-12-05T07:05:51Z,42.805,6.029,13.3025,4.60078,2470.717,2022-12-05T09:07:51Z
2022-12-05T07:08:54Z,42.805,6.029,13.3020,4.60085,2470.73,2022-12-05T09:10:54Z
2022-12-05T07:11:57Z,42.805,6.029,13.3022,4.60078,2470.684,2022-12-05T09:13:57Z
2022-12-05T07:15:00Z,42.805,6.029,13.3026,4.60085,2470.693,2022-12-05T09:17:00Z
2022-12-05T07:18:03Z,42.805,6.029,13.3022,4.60077,2470.717,2022-12-05T09:20:03Z
2022-12-05T07:21:06Z,42.805,6.029,13.3024,4.60082,2470.707,2022-12-05T09:23:06Z
2022-12-05T07:24:09Z,42.805,6.029,13.3019,4.60084,2470.693,2022-12-05T09:26:09Z
2022-12-05T07:27:12Z,42.805,6.029,13.3027,4.60086,2470.693,2022-12-05T09:29:12Z
2022-12-05T07:30:16Z,42.805,6.029,13.3024,4.60090,2470.67,2022-12-05T09:32:15Z
2022-12-05T07:33:19Z,42.805,6.029,13.3034,4.60085,2470.693,2022-12-05T09:35:19Z
2022-12-05T07:36:22Z,42.805,6.029,13.3024,4.60089,2470.67,2022-12-05T09:38:22Z
2022-12-05T07:39:25Z,42.805,6.029,13.3026,4.60079,2470.693,2022-12-05T09:41:25Z
2022-12-05T07:42:28Z,42.805,6.029,13.3019,4.60078,2470.67,2022-12-05T09:44:28Z
2022-12-05T07:45:31Z,42.805,6.029,13.3021,4.60076,2470.693,2022-12-05T09:47:31Z
2022-12-05T07:48:34Z,42.805,6.029,13.3029,4.60092,2470.67,2022-12-05T09:50:34Z
2022-12-05T07:51:37Z,42.805,6.029,13.3024,4.60087,2470.684,2022-12-05T09:53:37Z
2022-12-05T07:54:40Z,42.805,6.029,13.3029,4.60090,2470.707,2022-12-05T09:56:40Z
2022-12-05T07:57:43Z,42.805,6.029,13.3023,4.60082,2470.693,2022-12-05T09:59:43Z
2022-12-05T08:00:46Z,42.805,6.029,13.3028,4.60091,2470.67,2022-12-05T10:02:46Z
2022-12-05T08:03:49Z,42.805,6.029,13.3022,4.60080,2470.67,2022-12-05T10:05:49Z
2022-12-05T08:06:52Z,42.805,6.029,13.3024,4.60094,2470.684,2022-12-05T10:08:52Z
2022-12-05T08:09:55Z,42.805,6.029,13.3024,4.60079,2470.67,2022-12-05T10:11:55Z
2022-12-05T08:12:59Z,42.805,6.029,13.3026,4.60086,2470.707,2022-12-05T10:14:58Z
2022-12-05T08:16:02Z,42.805,6.029,13.3021,4.60079,2470.684,2022-12-05T10:18:02Z
2022-12-05T08:19:05Z,42.805,6.029,13.3023,4.60090,2470.67,2022-12-05T10:21:05Z
2022-12-05T08:22:08Z,42.805,6.029,13.3021,4.60076,2470.67,2022-12-05T10:24:08Z
2022-12-05T08:25:11Z,42.805,6.029,13.3021,4.60077,2470.646,2022-12-05T10:27:11Z
2022-12-05T08:28:14Z,42.805,6.029,13.3025,4.60081,2470.67,2022-12-05T10:30:14Z
2022-12-05T08:31:17Z,42.805,6.029,13.3021,4.60091,2470.646,2022-12-05T10:33:17Z
2022-12-05T08:34:20Z,42.805,6.029,13.3020,4.60092,2470.646,2022-12-05T10:36:20Z
2022-12-05T08:37:23Z,42.805,6.029,13.3021,4.60082,2470.646,2022-12-05T10:39:23Z
2022-12-05T08:40:26Z,42.805,6.029,13.3024,4.60083,2470.633,2022-12-05T10:42:26Z
2022-12-05T08:43:29Z,42.805,6.029,13.3022,4.60084,2470.661,2022-12-05T10:45:29Z
2022-12-05T08:46:32Z,42.805,6.029,13.3023,4.60080,2470.624,2022-12-05T10:48:32Z
2022-12-05T08:49:35Z,42.805,6.029,13.3024,4.60080,2470.646,2022-12-05T10:51:35Z
2022-12-05T08:52:39Z,42.805,6.029,13.3024,4.60084,2470.646,2022-12-05T10:54:38Z
2022-12-05T08:55:42Z,42.805,6.029,13.3024,4.60080,2470.646,2022-12-05T10:57:42Z
2022-12-05T08:58:45Z,42.805,6.029,13.3021,4.60079,2470.661,2022-12-05T11:00:45Z
2022-12-05T09:01:48Z,42.805,6.029,13.3022,4.60084,2470.646,2022-12-05T11:03:48Z
2022-12-05T09:04:51Z,42.805,6.029,13.3022,4.60080,2470.67,2022-12-05T11:06:51Z
2022-12-05T09:07:54Z,42.805,6.029,13.3019,4.60072,2470.624,2022-12-05T11:09:54Z
2022-12-05T09:10:57Z,42.805,6.029,13.3022,4.60083,2470.693,2022-12-05T11:12:57Z
2022-12-05T09:14:00Z,42.805,6.029,13.3022,4.60082,2470.661,2022-12-05T11:16:00Z
2022-12-05T09:17:03Z,42.805,6.029,13.3022,4.60083,2470.637,2022-12-05T11:19:03Z
2022-12-05T09:20:06Z,42.805,6.029,13.3020,4.60088,2470.646,2022-12-05T11:22:06Z
2022-12-05T09:23:09Z,42.805,6.029,13.3024,4.60080,2470.684,2022-12-05T11:25:09Z
2022-12-05T09:26:12Z,42.805,6.029,13.3024,4.60084,2470.624,2022-12-05T11:28:12Z
2022-12-05T09:29:15Z,42.805,6.029,13.3021,4.60085,2470.661,2022-12-05T11:31:15Z
2022-12-05T09:32:18Z,42.805,6.029,13.3019,4.60079,2470.646,2022-12-05T11:34:18Z
2022-12-05T09:35:22Z,42.805,6.029,13.3020,4.60091,2470.646,2022-12-05T11:37:22Z
2022-12-05T09:38:25Z,42.805,6.029,13.3021,4.60074,2470.684,2022-12-05T11:40:25Z
2022-12-05T09:41:28Z,42.805,6.029,13.3024,4.60090,2470.661,2022-12-05T11:43:28Z
2022-12-05T09:44:31Z,42.805,6.029,13.3021,4.60079,2470.637,2022-12-05T11:46:31Z
2022-12-05T09:47:34Z,42.805,6.029,13.3024,4.60081,2470.624,2022-12-05T11:49:34Z
2022-12-05T09:50:37Z,42.805,6.029,13.3019,4.60076,2470.646,2022-12-05T11:52:37Z
2022-12-05T09:53:40Z,42.805,6.029,13.3026,4.60077,2470.661,2022-12-05T11:55:40Z
2022-12-05T09:56:43Z,42.805,6.029,13.3022,4.60078,2470.6,2022-12-05T11:58:43Z
2022-12-05T09:59:46Z,42.805,6.029,13.3020,4.60081,2470.637,2022-12-05T12:01:46Z
2022-12-05T10:02:49Z,42.805,6.029,13.3020,4.60082,2470.646,2022-12-05T12:04:49Z
2022-12-05T10:05:52Z,42.805,6.029,13.3021,4.60074,2470.624,2022-12-05T12:07:52Z
2022-12-05T10:08:55Z,42.805,6.029,13.3024,4.60075,2470.624,2022-12-05T12:10:55Z
2022-12-05T10:11:58Z,42.805,6.029,13.3021,4.60076,2470.624,2022-12-05T12:13:58Z
2022-12-05T10:15:02Z,42.805,6.029,13.3024,4.60079,2470.614,2022-12-05T12:17:02Z
2022-12-05T10:18:05Z,42.805,6.029,13.3027,4.60075,2470.6,2022-12-05T12:20:05Z
2022-12-05T10:21:08Z,42.805,6.029,13.3018,4.60088,2470.637,2022-12-05T12:23:08Z
2022-12-05T10:24:11Z,42.805,6.029,13.3024,4.60079,2470.624,2022-12-05T12:26:11Z
2022-12-05T10:27:14Z,42.805,6.029,13.3021,4.60090,2470.614,2022-12-05T12:29:14Z
2022-12-05T10:30:17Z,42.805,6.029,13.3022,4.60078,2470.614,2022-12-05T12:32:17Z
2022-12-05T10:33:20Z,42.805,6.029,13.3023,4.60087,2470.6,2022-12-05T12:35:20Z
2022-12-05T10:36:23Z,42.805,6.029,13.3017,4.60074,2470.637,2022-12-05T12:38:23Z
2022-12-05T10:39:26Z,42.805,6.029,13.3019,4.60080,2470.614,2022-12-05T12:41:26Z
2022-12-05T10:42:29Z,42.805,6.029,13.3024,4.60081,2470.624,2022-12-05T12:44:29Z
2022-12-05T10:45:32Z,42.805,6.029,13.3016,4.60074,2470.586,2022-12-05T12:47:32Z
2022-12-05T10:48:35Z,42.805,6.029,13.3019,4.60074,2470.637,2022-12-05T12:50:35Z
2022-12-05T10:51:38Z,42.805,6.029,13.3022,4.60086,2470.6,2022-12-05T12:53:38Z
2022-12-05T10:54:42Z,42.805,6.029,13.3019,4.60080,2470.646,2022-12-05T12:56:41Z
2022-12-05T10:57:45Z,42.805,6.029,13.3026,4.60083,2470.637,2022-12-05T12:59:45Z
2022-12-05T11:00:48Z,42.805,6.029,13.3022,4.60073,2470.563,2022-12-05T13:02:48Z
2022-12-05T11:03:51Z,42.805,6.029,13.3017,4.60087,2470.6,2022-12-05T13:05:51Z
2022-12-05T11:06:54Z,42.805,6.029,13.3021,4.60079,2470.614,2022-12-05T13:08:54Z
2022-12-05T11:09:57Z,42.805,6.029,13.3017,4.60077,2470.6,2022-12-05T13:11:57Z
2022-12-05T11:13:00Z,42.805,6.029,13.3022,4.60077,2470.591,2022-12-05T13:15:00Z
2022-12-05T11:16:03Z,42.805,6.029,13.3022,4.60076,2470.6,2022-12-05T13:18:03Z
2022-12-05T11:19:06Z,42.805,6.029,13.3017,4.60076,2470.591,2022-12-05T13:21:06Z
2022-12-05T11:22:09Z,42.805,6.029,13.3022,4.60091,2470.6,2022-12-05T13:24:09Z
2022-12-05T11:25:12Z,42.805,6.029,13.3024,4.60096,2470.577,2022-12-05T13:27:12Z
2022-12-05T11:28:15Z,42.805,6.029,13.3020,4.60072,2470.614,2022-12-05T13:30:15Z
2022-12-05T11:31:18Z,42.805,6.029,13.3023,4.60086,2470.591,2022-12-05T13:33:18Z
2022-12-05T11:34:21Z,42.805,6.029,13.3025,4.60087,2470.577,2022-12-05T13:36:21Z
2022-12-05T11:37:25Z,42.805,6.029,13.3024,4.60080,2470.6,2022-12-05T13:39:24Z
2022-12-05T11:40:28Z,42.805,6.029,13.3014,4.60075,2470.553,2022-12-05T13:42:28Z
2022-12-05T11:43:31Z,42.805,6.029,13.3021,4.60078,2470.6,2022-12-05T13:45:31Z
2022-12-05T11:46:34Z,42.805,6.029,13.3015,4.60077,2470.6,2022-12-05T13:48:34Z
2022-12-05T11:49:37Z,42.805,6.029,13.3019,4.60072,2470.614,2022-12-05T13:51:37Z
2022-12-05T11:52:40Z,42.805,6.029,13.3029,4.60079,2470.577,2022-12-05T13:54:40Z
2022-12-05T11:55:43Z,42.805,6.029,13.3025,4.60076,2470.6,2022-12-05T13:57:43Z
2022-12-05T11:58:46Z,42.805,6.029,13.3024,4.60080,2470.614,2022-12-05T14:00:46Z
2022-12-05T12:01:49Z,42.805,6.029,13.3029,4.60081,2470.577,2022-12-05T14:03:49Z
2022-12-05T12:04:52Z,42.805,6.029,13.3023,4.60090,2470.577,2022-12-05T14:06:52Z
2022-12-05T12:07:55Z,42.805,6.029,13.3024,4.60083,2470.6,2022-12-05T14:09:55Z
2022-12-05T12:10:58Z,42.805,6.029,13.3015,4.60075,2470.6,2022-12-05T14:12:58Z
2022-12-05T12:14:01Z,42.805,6.029,13.3023,4.60093,2470.591,2022-12-05T14:16:01Z
2022-12-05T12:17:04Z,42.805,6.029,13.3021,4.60082,2470.614,2022-12-05T14:19:04Z
2022-12-05T12:20:08Z,42.805,6.029,13.3018,4.60085,2470.591,2022-12-05T14:22:07Z
2022-12-05T12:23:11Z,42.805,6.029,13.3020,4.60080,2470.614,2022-12-05T14:25:11Z
2022-12-05T12:26:14Z,42.805,6.029,13.3019,4.60074,2470.614,2022-12-05T14:28:14Z
2022-12-05T12:29:17Z,42.805,6.029,13.3019,4.60078,2470.591,2022-12-05T14:31:17Z
2022-12-05T12:32:20Z,42.805,6.029,13.3013,4.60075,2470.591,2022-12-05T14:34:20Z
2022-12-05T12:35:23Z,42.805,6.029,13.3021,4.60072,2470.577,2022-12-05T14:37:23Z
2022-12-05T12:38:26Z,42.805,6.029,13.3020,4.60072,2470.567,2022-12-05T14:40:26Z
2022-12-05T12:41:29Z,42.805,6.029,13.3024,4.60077,2470.6,2022-12-05T14:43:29Z
2022-12-05T12:44:32Z,42.805,6.029,13.3023,4.60077,2470.577,2022-12-05T14:46:32Z
2022-12-05T12:47:35Z,42.805,6.029,13.3023,4.60079,2470.577,2022-12-05T14:49:35Z
2022-12-05T12:50:38Z,42.805,6.029,13.3024,4.60076,2470.6,2022-12-05T14:52:38Z
2022-12-05T12:53:41Z,42.805,6.029,13.3019,4.60092,2470.614,2022-12-05T14:55:41Z
2022-12-05T12:56:44Z,42.805,6.029,13.3024,4.60084,2470.577,2022-12-05T14:58:44Z
2022-12-05T12:59:48Z,42.805,6.029,13.3018,4.60073,2470.591,2022-12-05T15:01:48Z
2022-12-05T13:02:51Z,42.805,6.029,13.3024,4.60084,2470.6,2022-12-05T15:04:51Z
2022-12-05T13:05:54Z,42.805,6.029,13.3018,4.60077,2470.624,2022-12-05T15:07:54Z
2022-12-05T13:08:57Z,42.805,6.029,13.3016,4.60077,2470.6,2022-12-05T15:10:57Z
2022-12-05T13:12:00Z,42.805,6.029,13.3026,4.60084,2470.577,2022-12-05T15:14:00Z
2022-12-05T13:15:03Z,42.805,6.029,13.3015,4.60080,2470.6,2022-12-05T15:17:03Z
2022-12-05T13:18:06Z,42.805,6.029,13.3021,4.60079,2470.6,2022-12-05T15:20:06Z
2022-12-05T13:21:09Z,42.805,6.029,13.3016,4.60075,2470.6,2022-12-05T15:23:09Z
2022-12-05T13:24:12Z,42.805,6.029,13.3017,4.60068,2470.614,2022-12-05T15:26:12Z
2022-12-05T13:27:15Z,42.805,6.029,13.3020,4.60066,2470.6,2022-12-05T15:29:15Z
2022-12-05T13:30:18Z,42.805,6.029,13.3017,4.60073,2470.577,2022-12-05T15:32:18Z
2022-12-05T13:33:21Z,42.805,6.029,13.3019,4.60084,2470.624,2022-12-05T15:35:21Z
2022-12-05T13:36:24Z,42.805,6.029,13.3021,4.60074,2470.637,2022-12-05T15:38:24Z
2022-12-05T13:39:28Z,42.805,6.029,13.3020,4.60083,2470.614,2022-12-05T15:41:27Z
2022-12-05T13:42:31Z,42.805,6.029,13.3011,4.60072,2470.624,2022-12-05T15:44:31Z
2022-12-05T13:45:34Z,42.805,6.029,13.3017,4.60072,2470.624,2022-12-05T15:47:34Z
2022-12-05T13:48:37Z,42.805,6.029,13.3015,4.60068,2470.646,2022-12-05T15:50:37Z
2022-12-05T13:51:40Z,42.805,6.029,13.3024,4.60094,2470.637,2022-12-05T15:53:40Z
2022-12-05T13:54:43Z,42.805,6.029,13.3018,4.60072,2470.646,2022-12-05T15:56:43Z
2022-12-05T13:57:46Z,42.805,6.029,13.3016,4.60074,2470.6,2022-12-05T15:59:46Z
2022-12-05T14:00:49Z,42.805,6.029,13.3022,4.60072,2470.614,2022-12-05T16:02:49Z
2022-12-05T14:03:52Z,42.805,6.029,13.3018,4.60070,2470.614,2022-12-05T16:05:52Z
2022-12-05T14:06:55Z,42.805,6.029,13.3018,4.60071,2470.624,2022-12-05T16:08:55Z
2022-12-05T14:09:58Z,42.805,6.029,13.3014,4.60070,2470.624,2022-12-05T16:11:58Z
2022-12-05T14:13:01Z,42.805,6.029,13.3018,4.60072,2470.614,2022-12-05T16:15:01Z
2022-12-05T14:16:04Z,42.805,6.029,13.3019,4.60073,2470.646,2022-12-05T16:18:04Z
2022-12-05T14:19:07Z,42.805,6.029,13.3026,4.60087,2470.624,2022-12-05T16:21:07Z
2022-12-05T14:22:11Z,42.805,6.029,13.3024,4.60086,2470.61,2022-12-05T16:24:11Z
2022-12-05T14:25:14Z,42.805,6.029,13.3019,4.60090,2470.646,2022-12-05T16:27:14Z
2022-12-05T14:28:17Z,42.805,6.029,13.3021,4.60095,2470.637,2022-12-05T16:30:17Z
2022-12-05T14:31:20Z,42.805,6.029,13.3019,4.60078,2470.624,2022-12-05T16:33:20Z
2022-12-05T14:34:23Z,42.805,6.029,13.3021,4.60074,2470.633,2022-12-05T16:36:23Z
2022-12-05T14:37:26Z,42.805,6.029,13.3020,4.60073,2470.646,2022-12-05T16:39:26Z
2022-12-05T14:40:29Z,42.805,6.029,13.3019,4.60075,2470.646,2022-12-05T16:42:29Z
2022-12-05T14:43:32Z,42.805,6.029,13.3015,4.60074,2470.661,2022-12-05T16:45:32Z
2022-12-05T14:46:35Z,42.805,6.029,13.3024,4.60085,2470.637,2022-12-05T16:48:35Z
2022-12-05T14:49:38Z,42.805,6.029,13.3023,4.60089,2470.646,2022-12-05T16:51:38Z
2022-12-05T14:52:41Z,42.805,6.029,13.3027,4.60087,2470.684,2022-12-05T16:54:41Z
2022-12-05T14:55:44Z,42.805,6.029,13.3020,4.60073,2470.707,2022-12-05T16:57:44Z
2022-12-05T14:58:48Z,42.805,6.029,13.3021,4.60079,2470.661,2022-12-05T17:00:47Z
2022-12-05T15:01:51Z,42.805,6.029,13.3021,4.60079,2470.646,2022-12-05T17:03:51Z